User: anonymous   Login
Location: The D'Auria's Ocala Star Observatory
(29.0276°N, 82.1742°W)
Time: 09:29:10
(UTC-04:00)
Language:

Okean 3 Rocket - Orbit

View from above orbital plane
View from above orbital plane
View from above satellite
View from above satellite

Ground track
Ground track

The orbit data is extracted from the following two-line orbital elements,

1 21398U 91039B   17117.97166529 +.00000071 +00000-0 +63598-5 0  9991
2 21398 082.5211 272.9246 0021159 351.5049 130.6742 14.79659976375440
Epoch (UTC): 27 April 2017 23:19:11
Eccentricity: 0.0021159
inclination: 82.5211°
perigee height: 615 km
apogee height: 645 km
right ascension of ascending node: 272.9246°
argument of perigee: 351.5049°
revolutions per day: 14.79659976
mean anomaly at epoch: 130.6742°
orbit number at epoch: 37544

The dashed part of the orbit path shows where the satellite is in the earth's shadow,  

DLR